Location: Newark
(51.8900°N, 2.0780°W)
Time: 15:21:51
(UTC+00:00)

Envisat - Pass Details

Date: 22 November 2019
Orbit: 764 x 766 km, 98.1° (Epoch: 06 December)

Event Time Altitude Azimuth Distance (km) Brightness Sun altitude
Rises 18:45:39 0° 190° (S) 3,221 6.4 -23.6°
Reaches altitude 10° 18:48:08 10° 199° (SSW) 2,300 5.7 -24.0°
Maximum altitude 18:52:45 35° 265° (W) 1,232 4.6 -24.7°
Drops below altitude 10° 18:57:24 10° 330° (NNW) 2,315 5.8 -25.4°
Sets 18:59:55 0° 340° (NNW) 3,245 6.5 -25.8°
